Simultaneous Nadir Overpasses (SNOs) Predictions

Prediction of SNOs between NOAA-19 and TERRA Satellite Orbit:

Table of predicted SNOs for the next 14.0 days since TLE Epoch: 5/25/2019
Index Date (NOAA-19) Time (NOAA-19) Lat,Lon (NOAA-19) SZA (NOAA-19 ) Date (TERRA) Time (TERRA) Lat,Lon (TERRA) SZA (TERRA ) Distance(km) Time Diff (sec)
1 05/26/2019 20:36:25 -78.38, 72.76 121.89 05/26/2019 20:36:50 -78.38, 72.61 121.90 3.24 25
2 05/26/2019 21:27:25 78.35,-119.78 58.10 05/26/2019 21:26:16 78.38,-119.76 58.10 3.00 69
3 05/29/2019 02:09:52 78.42, 169.28 57.77 05/29/2019 02:10:32 78.42, 169.39 57.79 2.47 40
4 05/29/2019 03:00:51 -78.36, -23.10 122.27 05/29/2019 03:00:00 -78.38, -23.15 122.27 3.16 51
5 05/31/2019 07:43:19 -78.44, -94.14 122.56 05/31/2019 07:44:16 -78.43, -94.00 122.54 3.29 57
6 05/31/2019 08:34:17 78.38, 73.49 57.41 05/31/2019 08:33:43 78.38, 73.38 57.39 2.43 34
7 06/02/2019 13:16:47 78.56, 1.80 57.18 06/02/2019 13:17:59 78.42, 2.51 57.14 21.89 72
8 06/02/2019 14:07:45 -78.42, 169.96 122.88 06/02/2019 14:07:27 -78.39, 170.00 122.91 3.49 18
9 06/04/2019 19:41:09 78.42, -93.30 56.86 06/04/2019 19:41:09 78.42, -93.29 56.85 0.24 0
10 06/07/2019 01:14:37 -78.42, 3.41 123.39 06/07/2019 01:14:53 -78.43, 3.33 123.38 1.90 16




NCC Satellite Simultaneous Nadir Overpasses (SNOs) Prediction Service
